User: anonymous   Login
Location: Unspecified
(0.0000°N, 0.0000°E)
Time: 04:00:54
(UTC+00:00)
Language:

Snapshot - Orbit

View from above orbital plane
View from above orbital plane
View from above satellite
View from above satellite

Ground track
Ground track

The orbit data is extracted from the following two-line orbital elements,

1 01314U 65027A   14302.80655208 -.00000174  00000-0 -67624-3 0  7128
2 01314 090.2943 258.3001 0029919 203.2108 214.9526 12.91737798 82949
Epoch (UTC): 29 October 2014 19:21:26
Eccentricity: 0.0029919
inclination: 90.2943°
perigee height: 1271 km
apogee height: 1317 km
right ascension of ascending node: 258.3001°
argument of perigee: 203.2108°
revolutions per day: 12.91737798
mean anomaly at epoch: 214.9526°
orbit number at epoch: 8294

The dashed part of the orbit path shows where the satellite is in the earth's shadow,  

DLR